Hourly Data Report for July 16, 2011

HALIFAX STANFIELD INT'L A
NOVA SCOTIA

44°52'48.060" N
63°30'00.050" W
145.40 m
8202250
71395
YHZ

Download Data

Hourly Data (July 2011)
Hourly Data Report for July 16, 2011
TIME
LST
Temp Definition
°C
Dew Point Definition
°C
Rel Hum Definition
%
Precip. Amount Definition
mm

Wind Dir Definition
10's deg

Wind Spd Definition
km/h
Visibility Definition
km
Stn Press Definition
kPa
Hmdx Definition


Wind Chill Definition


Weather Definition


00:00 13.2 9.7 79   33 28 24.1 99.56     Mostly Cloudy
01:00 13.0 9.6 80   36 28 24.1 99.56     Mostly Cloudy
02:00 13.0 9.4 79   33 28 24.1 99.54     Mostly Cloudy
03:00 13.2 9.4 78   33 28 24.1 99.55     Mostly Cloudy
04:00 13.5 9.3 76   34 28 24.1 99.56     Mostly Cloudy
05:00 13.5 9.6 77   33 20 24.1 99.61     Mostly Cloudy
06:00 14.2 9.7 74   33 22 24.1 99.64     Mostly Cloudy
07:00 14.9 10.3 74   34 26 24.1 99.71     Mostly Cloudy
08:00 15.6 10.4 71   33 22 24.1 99.76     Mostly Cloudy
09:00 15.4 10.8 74   33 33 24.1 99.83     Cloudy
10:00 16.0 11.4 74   33 26 24.1 99.83     Mostly Cloudy
11:00 17.3 11.7 70   32 30 24.1 99.81     Mostly Cloudy
12:00 18.1 11.9 67   31 32 24.1 99.81     Mostly Cloudy
13:00 19.8 12.9 64   30 19 24.1 99.79     Mostly Cloudy
14:00 19.2 10.4 57   31 26 24.1 99.82     Mostly Cloudy
15:00 18.8 11.3 62   31 26 24.1 99.82     Mostly Cloudy
16:00 19.0 10.4 57   32 20 24.1 99.80     Mostly Cloudy
17:00 18.8 11.4 62   32 15 24.1 99.82     Cloudy
18:00 18.1 11.7 66   29 9 24.1 99.83     Mostly Cloudy
19:00 18.1 12.0 68   28 6 24.1 99.83     Cloudy
20:00 16.8 11.9 73   29 6 24.1 99.82     Mostly Cloudy
21:00 15.3 12.9 86   23 9 24.1 99.84     Mostly Cloudy
22:00 13.8 12.3 91   34 7 24.1 99.84     Mainly Clear
23:00 13.8 12.1 89   27 7 24.1 99.85     Clear

Notes on Data Quality.

Legend

  • E = Estimated
  • M = Missing
  • NA = Not Available*
  • [empty] = Indicates an unobserved value
Date modified: